NOAA 16 DEB

Satellite information

Favourite Embed

Satellite Type and Status

DEBRISIN ORBIT

Key statistics

Satellite NOAA 16 DEB at a glance.

Uptime

9110

Days in orbit

Revolutions

≈ 14.1

Per day

Orbit

SSO

Sun Synchronous Orbit

Inclination

98.9

Latest

Satellite identification and parameters

Extended collection of information and parameters for NOAA 16 DEB.

Object identification

Identified? True

Debris? True

Object name: NOAA 16 DEB

International designator: 2000-055RE

Object number (NORAD): 42362

Object ID (CCSDS): 42362

Country: UNITED STATES OF AMERICA (US)

Current information (Y/N): Y

RCS size: SMALL

Orbital parameters

Period: 102.187 minutes

Inclination: 98.8633 deg

SMA: 7240.294 km

Apoapsis: 931.48 km

Periapsis: 792.838 km

RAAN: 202.6763 deg

Eccentricy: 0.00957429

Argument of periapsis: 286.0482 deg

Mean anomaly: 73.0161 deg

Mean motion: 14.09186446 rev/day

Mean motion (dot): 0.00008489 rev/day2

B* drag term: 0.0047024112 1/REarth

Two-line elements (TLE)

Creation date: Aug. 30, 2025, 3:38 a.m.

Reference frame: TEME

Reference center: EARTH

Epoch: Aug. 29, 2025, 4:25 p.m. UTC

TLE line 0: 0 NOAA 16 DEB

TLE line 1: 1 42362U 00055RE 25241.68403864 .00008489 00000-0 47024-2 0 9998

TLE line 2: 2 42362 98.8633 202.6763 0095743 286.0482 73.0161 14.09186446486616

Live tracking on map

Real-time ground track for satellite NOAA 16 DEB.

In-orbit conjunctions

A list of the most updated potential collisions computed for object NOAA 16 DEB.

Target Orbit TCA Probability of collision Miss distance Type
METEOR 2-18 LEO 2025-02-22 18:15:58 0.0014952 18.0 (m) PAYLOAD
SL-8 R/B LEO 2024-06-13 12:25:47 0.0002706132 380.0 (m) ROCKET BODY

Associated space launch

The NOAA K, L and M POES satellites begin the fifth generation of improved environmental monitoring in support of NOAA missions. The instrument payload has significant improvements and additions/deletions. The instrument changes have effected the spacecraft subsystems and data formats.

NOAA 16 DEB was lifted into orbit during the mission ‘Titan II SLV | NOAA 16’, on board a Titan II SLV space rocket.

The launch took place on Sept. 21, 2000, 10:22 a.m. from Space Launch Complex 4W.

For more information about the launch, click the button.

Launch to space Titan II SLV | NOAA 16
Titan II SLV | NOAA 16

Agency: N/A

Status: Launch Successful

Launch date: Sept. 21, 2000, 10:22 a.m. UTC

Rocket: Titan II SLV

Launch pad: Space Launch Complex 4W

Location: Vandenberg SFB, CA, USA

...

Latest news about this satellite

There are no fresh news available about this satellite. Check back as we update our databases every day.


Newsletter sign-up

Weekly statistics, charts and insights to help you stay on top of the space industry.